| time (UTC) | temp F | wind direction | speed MPH | gust MPH | rain 1hr in | rain 24hr in | rain mn in | humidity % | barometer mb |
| 20260506090630 | 58 | 135 | 0.0 | 1.0 | 0.00 | 0.67 | 0.67 | 60 | 1007.8 |
| 20260506090228 | 58 | 180 | 0.0 | 2.0 | 0.00 | 0.67 | 0.67 | 60 | 1007.3 |
| 20260506085828 | 58 | 90 | 0.0 | 0.0 | 0.00 | 0.67 | 0.67 | 61 | 1007.3 |
| 20260506085426 | 58 | 90 | 0.0 | 0.0 | 0.00 | 0.67 | 0.67 | 61 | 1007.5 |
| 20260506084824 | 58 | 315 | 0.0 | 1.0 | 0.00 | 0.67 | 0.67 | 61 | 1007.3 |
| 20260506084422 | 58 | 225 | 2.0 | 8.0 | 0.00 | 0.67 | 0.67 | 61 | 1007.2 |
| 20260506084021 | 58 | 315 | 0.0 | 2.0 | 0.00 | 0.67 | 0.67 | 62 | 1007.2 |
| 20260506083620 | 58 | 45 | 1.0 | 5.0 | 0.00 | 0.67 | 0.67 | 62 | 1007.1 |
| 20260506083218 | 58 | 90 | 0.0 | 2.0 | 0.00 | 0.67 | 0.67 | 64 | 1007.1 |
| 20260506082817 | 58 | 270 | 1.0 | 5.0 | 0.00 | 0.67 | 0.67 | 64 | 1007.3 |
| 20260506082215 | 58 | 0 | 0.0 | 1.0 | 0.00 | 0.67 | 0.67 | 65 | 1006.7 |
| 20260506081813 | 58 | 180 | 2.0 | 11.0 | 0.00 | 0.67 | 0.67 | 68 | 1007.0 |
| 20260506081412 | 58 | 270 | 0.0 | 2.0 | 0.00 | 0.67 | 0.67 | 69 | 1006.8 |
| 20260506081011 | 58 | 225 | 0.0 | 1.0 | 0.00 | 0.67 | 0.67 | 69 | 1006.8 |
| 20260506080609 | 58 | 270 | 0.0 | 2.0 | 0.00 | 0.67 | 0.67 | 73 | 1006.8 |
| 20260506080208 | 57 | 0 | 2.0 | 12.0 | 0.00 | 0.67 | 0.67 | 74 | 1007.1 |
| 20260506072958 | 56 | 113 | 4.0 | 9.0 | 0.11 | 0.67 | 0.67 | 87 | 1006.5 |
| 20260506072558 | 56 | 180 | 0.0 | 1.0 | 0.11 | 0.67 | 0.67 | 87 | 1006.6 |
| 20260506072156 | 56 | 180 | 0.0 | 2.0 | 0.11 | 0.67 | 0.67 | 87 | 1006.5 |
| 20260506071755 | 56 | 135 | 0.0 | 0.0 | 0.11 | 0.67 | 0.67 | 87 | 1006.5 |
| 20260506071354 | 56 | 180 | 0.0 | 2.0 | 0.11 | 0.67 | 0.67 | 86 | 1006.5 |
| 20260506070953 | 57 | 90 | 2.0 | 13.0 | 0.11 | 0.67 | 0.67 | 86 | 1006.4 |
| 20260506070552 | 56 | 293 | 5.0 | 10.0 | 0.11 | 0.67 | 0.67 | 86 | 1006.5 |
| 20260506070351 | 56 | 45 | 0.0 | 1.0 | 0.11 | 0.67 | 0.67 | 85 | 1006.3 |
| 20260506062138 | 56 | 225 | 0.0 | 0.0 | 0.00 | 0.61 | 0.55 | 82 | 1006.1 |
| 20260506061736 | 56 | 135 | 0.0 | 0.0 | 0.00 | 0.62 | 0.55 | 82 | 1006.4 |
| 20260506061335 | 56 | 90 | 0.0 | 0.0 | 0.00 | 0.64 | 0.55 | 83 | 1006.4 |
| 20260506060733 | 55 | 135 | 0.0 | 1.0 | 0.00 | 0.67 | 0.55 | 84 | 1006.6 |
| 20260506060332 | 55 | 270 | 0.0 | 0.0 | 0.00 | 0.72 | 0.55 | 84 | 1006.6 |
| 20260506051117 | 53 | 270 | 0.0 | 0.0 | 0.01 | 1.18 | 0.55 | 86 | 1006.8 |
| 20260506050715 | 52 | 113 | 0.0 | 0.0 | 0.01 | 1.21 | 0.55 | 85 | 1006.8 |
| 20260506050314 | 52 | 113 | 0.0 | 0.0 | 0.02 | 1.24 | 0.55 | 85 | 1006.7 |
| 20260506044909 | 52 | 90 | 0.0 | 0.0 | 0.03 | 1.34 | 0.55 | 85 | 1006.7 |
| 20260506044508 | 52 | 135 | 0.0 | 0.0 | 0.04 | 1.37 | 0.55 | 85 | 1006.9 |
| 20260506044108 | 52 | 225 | 0.0 | 0.0 | 0.04 | 1.39 | 0.55 | 85 | 1006.9 |
| 20260506043706 | 52 | 270 | 0.0 | 0.0 | 0.04 | 1.40 | 0.55 | 85 | 1006.8 |
| 20260506043505 | 52 | 45 | 0.0 | 0.0 | 0.04 | 1.40 | 0.55 | 85 | 1006.9 |
| 20260506043104 | 52 | 45 | 0.0 | 0.0 | 0.04 | 1.42 | 0.55 | 85 | 1007.0 |
| 20260506042702 | 52 | 45 | 0.0 | 0.0 | 0.03 | 1.42 | 0.55 | 85 | 1007.1 |
| 20260506042301 | 52 | 180 | 0.0 | 0.0 | 0.03 | 1.44 | 0.54 | 85 | 1007.2 |
| 20260506041859 | 52 | 45 | 0.0 | 0.0 | 0.03 | 1.45 | 0.54 | 85 | 1007.2 |
| 20260506041458 | 52 | 0 | 0.0 | 0.0 | 0.03 | 1.46 | 0.54 | 85 | 1007.2 |
| 20260506040456 | 52 | 68 | 0.0 | 2.0 | 0.02 | 1.57 | 0.53 | 84 | 1007.4 |
| 20260506040054 | 52 | 270 | 0.0 | 0.0 | 0.01 | 1.55 | 0.53 | 84 | 1007.5 |
| 20260506035653 | 52 | 90 | 0.0 | 0.0 | 0.01 | 1.57 | 0.51 | 84 | 1007.7 |
| 20260506035251 | 52 | 270 | 0.0 | 0.0 | 0.00 | 1.55 | 0.51 | 84 | 1007.6 |
| 20260506034850 | 52 | 270 | 0.0 | 0.0 | 0.01 | 1.55 | 0.50 | 85 | 1007.5 |
| 20260506034449 | 52 | 270 | 0.0 | 0.0 | 0.04 | 1.57 | 0.50 | 85 | 1007.3 |
| 20260506033847 | 52 | 270 | 0.0 | 0.0 | 0.05 | 1.57 | 0.50 | 84 | 1007.4 |
| 20260506033446 | 52 | 45 | 0.0 | 0.0 | 0.08 | 1.59 | 0.50 | 84 | 1007.3 |
| 20260506033044 | 52 | 135 | 0.0 | 0.0 | 0.09 | 1.60 | 0.50 | 83 | 1007.3 |
| 20260506032643 | 52 | 270 | 0.0 | 0.0 | 0.10 | 1.61 | 0.50 | 83 | 1007.2 |
| 20260506032242 | 52 | 225 | 0.0 | 0.0 | 0.12 | 1.62 | 0.50 | 84 | 1007.3 |
| 20260506031840 | 52 | 225 | 0.0 | 0.0 | 0.17 | 1.62 | 0.50 | 82 | 1007.4 |
| 20260506031439 | 52 | 225 | 0.0 | 0.0 | 0.22 | 1.62 | 0.50 | 82 | 1007.4 |
| 20260506031238 | 52 | 225 | 0.0 | 0.0 | 0.23 | 1.62 | 0.50 | 82 | 1007.3 |
| 20260506030836 | 52 | 225 | 0.0 | 0.0 | 0.24 | 1.62 | 0.50 | 82 | 1007.3 |
| 20260506030435 | 52 | 225 | 0.0 | 0.0 | 0.25 | 1.64 | 0.50 | 82 | 1007.5 |
| 20260506030033 | 52 | 225 | 0.0 | 0.0 | 0.27 | 1.64 | 0.50 | 82 | 1007.7 |
| 20260506025632 | 52 | 225 | 0.0 | 0.0 | 0.25 | 1.62 | 0.50 | 82 | 1007.7 |
| 20260506025231 | 53 | 270 | 0.0 | 0.0 | 0.25 | 1.60 | 0.49 | 82 | 1007.5 |
| 20260506024830 | 53 | 90 | 0.0 | 0.0 | 0.25 | 1.59 | 0.47 | 82 | 1007.8 |
| 20260506024429 | 53 | 90 | 0.0 | 0.0 | 0.25 | 1.59 | 0.46 | 82 | 1008.2 |
| 20260506023426 | 53 | 225 | 0.0 | 0.0 | 0.28 | 1.57 | 0.42 | 81 | 1008.1 |
| 20260506023025 | 53 | 225 | 0.0 | 0.0 | 0.29 | 1.57 | 0.41 | 81 | 1008.0 |
| 20260506022623 | 53 | 0 | 0.0 | 0.0 | 0.27 | 1.54 | 0.40 | 80 | 1008.2 |
| 20260506022222 | 53 | 0 | 0.0 | 0.0 | 0.23 | 1.51 | 0.37 | 80 | 1008.2 |
| 20260506021620 | 54 | 90 | 0.0 | 0.0 | 0.20 | 1.46 | 0.28 | 78 | 1008.3 |
| 20260506021219 | 54 | 135 | 0.0 | 0.0 | 0.21 | 1.46 | 0.27 | 77 | 1008.3 |
| 20260506020817 | 55 | 180 | 0.0 | 0.0 | 0.21 | 1.45 | 0.25 | 77 | 1008.0 |
| 20260506020416 | 55 | 180 | 0.0 | 0.0 | 0.21 | 1.45 | 0.24 | 76 | 1007.7 |
| 20260506020014 | 55 | 180 | 0.0 | 0.0 | 0.21 | 1.45 | 0.23 | 76 | 1007.8 |
| 20260506015814 | 55 | 180 | 0.0 | 0.0 | 0.20 | 1.45 | 0.23 | 76 | 1008.0 |
| 20260506015412 | 55 | 135 | 0.0 | 0.0 | 0.18 | 1.42 | 0.21 | 75 | 1008.0 |
| 20260506015012 | 55 | 225 | 0.0 | 0.0 | 0.17 | 1.41 | 0.20 | 75 | 1008.1 |
| 20260506014610 | 55 | 225 | 0.0 | 0.0 | 0.17 | 1.40 | 0.18 | 75 | 1008.3 |
| 20260506014209 | 55 | 45 | 0.0 | 0.0 | 0.15 | 1.38 | 0.17 | 75 | 1008.6 |
| 20260506013808 | 55 | 45 | 0.0 | 0.0 | 0.12 | 1.35 | 0.15 | 74 | 1008.7 |
| 20260506013406 | 55 | 45 | 0.0 | 0.0 | 0.10 | 1.33 | 0.12 | 75 | 1008.7 |
| 20260506012404 | 55 | 315 | 0.0 | 0.0 | 0.08 | 1.33 | 0.09 | 73 | 1008.6 |
| 20260506012003 | 56 | 45 | 0.0 | 0.0 | 0.07 | 1.32 | 0.08 | 72 | 1008.5 |
| 20260506011602 | 56 | 180 | 0.0 | 0.0 | 0.04 | 1.31 | 0.07 | 72 | 1008.4 |
| 20260506011200 | 56 | 90 | 0.0 | 0.0 | 0.03 | 1.29 | 0.04 | 72 | 1008.5 |
| 20260506010759 | 56 | 0 | 0.0 | 0.0 | 0.02 | 1.29 | 0.03 | 72 | 1008.4 |
| 20260506010157 | 56 | 90 | 0.0 | 0.0 | 0.01 | 1.29 | 0.02 | 71 | 1008.3 |
| 20260506005756 | 56 | 45 | 0.0 | 0.0 | 0.01 | 1.28 | 0.01 | 69 | 1008.3 |
| 20260506005354 | 56 | 45 | 0.0 | 0.0 | 0.01 | 1.28 | 0.01 | 69 | 1008.4 |
| 20260506004953 | 56 | 45 | 0.0 | 0.0 | 0.00 | 1.27 | 0.01 | 68 | 1008.6 |
| 20260506004551 | 56 | 270 | 0.0 | 0.0 | 0.00 | 1.27 | 0.00 | 68 | 1008.6 |
| 20260506004151 | 56 | 135 | 0.0 | 0.0 | 0.00 | 1.27 | 0.00 | 67 | 1008.6 |
| 20260506003950 | 56 | 135 | 0.0 | 0.0 | 0.00 | 1.27 | 0.00 | 67 | 1008.6 |
| 20260506003549 | 56 | 90 | 0.0 | 0.0 | 0.00 | 1.27 | 0.00 | 67 | 1008.5 |
| 20260506003147 | 56 | 90 | 0.0 | 0.0 | 0.00 | 1.27 | 0.00 | 67 | 1008.6 |
| 20260506002746 | 56 | 90 | 0.0 | 0.0 | 0.00 | 1.27 | 0.00 | 67 | 1008.6 |
| 20260506002345 | 56 | 270 | 0.0 | 0.0 | 0.00 | 1.27 | 0.00 | 67 | 1008.6 |
| 20260506001943 | 56 | 270 | 0.0 | 0.0 | 0.00 | 1.27 | 0.00 | 66 | 1008.7 |
| 20260506001542 | 56 | 45 | 0.0 | 0.0 | 0.00 | 1.27 | 0.00 | 66 | 1008.8 |
| 20260506000541 | 56 | 225 | 0.0 | 0.0 | 0.00 | 1.27 | 0.00 | 66 | 1009.0 |
| 20260506000139 | 56 | 225 | 0.0 | 0.0 | 0.00 | 1.27 | 0.00 | 66 | 1008.9 |
| 20260505235738 | 56 | 135 | 0.0 | 0.0 | 0.00 | 1.27 | 0.00 | 66 | 1009.0 |
| 20260505235336 | 56 | 135 | 0.0 | 0.0 | 0.00 | 1.27 | 0.00 | 66 | 1009.1 |
| 20260505234334 | 57 | 180 | 0.0 | 0.0 | 0.00 | 1.27 | 0.00 | 66 | 1009.4 |
| 20260505233933 | 57 | 270 | 0.0 | 0.0 | 0.00 | 1.27 | 0.00 | 65 | 1009.5 |
| 20260505233531 | 57 | 45 | 0.0 | 0.0 | 0.00 | 1.27 | 0.00 | 65 | 1009.6 |
| 20260505233130 | 57 | 270 | 0.0 | 0.0 | 0.00 | 1.27 | 0.00 | 65 | 1009.7 |
| 20260505232729 | 57 | 270 | 0.0 | 0.0 | 0.00 | 1.27 | 0.00 | 65 | 1009.8 |
| 20260505232327 | 57 | 0 | 0.0 | 0.0 | 0.00 | 1.27 | 0.00 | 65 | 1009.9 |
| 20260505231926 | 57 | 45 | 0.0 | 0.0 | 0.00 | 1.27 | 0.00 | 65 | 1009.8 |
| 20260505231324 | 57 | 45 | 0.0 | 1.0 | 0.00 | 1.27 | 0.00 | 65 | 1009.8 |
| 20260505230923 | 57 | 0 | 0.0 | 0.0 | 0.00 | 1.27 | 0.00 | 66 | 1010.1 |
| 20260505230522 | 57 | 315 | 0.0 | 0.0 | 0.00 | 1.27 | 0.00 | 66 | 1010.2 |
| 20260505230122 | 57 | 68 | 0.0 | 0.0 | 0.00 | 1.27 | 0.00 | 66 | 1009.9 |
| 20260505225720 | 57 | 90 | 0.0 | 1.0 | 0.00 | 1.27 | 0.00 | 66 | 1010.0 |
| 20260505224316 | 57 | 293 | 0.0 | 1.0 | 0.00 | 1.27 | 0.00 | 67 | 1010.1 |
| 20260505223915 | 57 | 135 | 0.0 | 0.0 | 0.00 | 1.27 | 0.00 | 66 | 1010.1 |
| 20260505223514 | 57 | 135 | 0.0 | 0.0 | 0.00 | 1.27 | 0.00 | 67 | 1010.2 |
| 20260505223113 | 57 | 270 | 0.0 | 0.0 | 0.00 | 1.27 | 0.00 | 67 | 1010.2 |
| 20260505222512 | 57 | 0 | 0.0 | 0.0 | 0.00 | 1.27 | 0.00 | 67 | 1010.2 |
| 20260505222110 | 57 | 225 | 0.0 | 0.0 | 0.00 | 1.27 | 0.00 | 67 | 1010.3 |
| 20260505221709 | 56 | 158 | 0.0 | 1.0 | 0.00 | 1.27 | 0.00 | 67 | 1010.4 |
| 20260505221307 | 56 | 270 | 0.0 | 0.0 | 0.00 | 1.27 | 0.00 | 67 | 1010.2 |
| 20260505220906 | 56 | 315 | 0.0 | 0.0 | 0.00 | 1.27 | 0.00 | 67 | 1010.3 |
| 20260505220505 | 56 | 45 | 0.0 | 0.0 | 0.00 | 0.00 | 0.00 | 67 | 1010.5 |
| 20260505215750 | 56 | 315 | 0.0 | 0.0 | 0.00 | 1.27 | 1.27 | 67 | 1010.6 |
| 20260505215348 | 56 | 90 | 0.0 | 0.0 | 0.00 | 1.27 | 1.27 | 67 | 1010.7 |
| 20260505214947 | 56 | 270 | 0.0 | 0.0 | 0.00 | 1.27 | 1.27 | 67 | 1010.6 |
| 20260505214546 | 57 | 45 | 0.0 | 0.0 | 0.00 | 1.27 | 1.27 | 67 | 1010.5 |
| 20260505214345 | 56 | 270 | 0.0 | 0.0 | 0.00 | 1.27 | 1.27 | 67 | 1010.6 |
| 20260505213944 | 56 | 90 | 0.0 | 0.0 | 0.00 | 1.27 | 1.27 | 68 | 1010.6 |
| 20260505213543 | 56 | 270 | 0.0 | 0.0 | 0.00 | 1.27 | 1.27 | 68 | 1010.7 |
| 20260505213142 | 56 | 180 | 0.0 | 0.0 | 0.00 | 1.27 | 1.27 | 68 | 1010.8 |
| 20260505212740 | 56 | 0 | 0.0 | 0.0 | 0.00 | 1.27 | 1.27 | 68 | 1010.9 |
| 20260505212340 | 56 | 45 | 0.0 | 0.0 | 0.00 | 1.27 | 1.27 | 68 | 1010.8 |
| 20260505211938 | 57 | 45 | 0.0 | 0.0 | 0.00 | 1.27 | 1.27 | 68 | 1010.7 |
| 20260505210936 | 56 | 45 | 0.0 | 1.0 | 0.00 | 1.27 | 1.27 | 67 | 1010.9 |
| 20260505210535 | 56 | 315 | 0.0 | 0.0 | 0.00 | 1.27 | 1.27 | 67 | 1010.8 |
| 20260505210134 | 56 | 270 | 0.0 | 0.0 | 0.00 | 1.27 | 1.27 | 66 | 1010.9 |
| 20260505205732 | 56 | 270 | 0.0 | 0.0 | 0.00 | 1.27 | 1.27 | 66 | 1011.1 |
| 20260505205331 | 56 | 45 | 0.0 | 0.0 | 0.00 | 1.27 | 1.27 | 66 | 1010.9 |
| 20260505204730 | 57 | 270 | 0.0 | 0.0 | 0.00 | 1.27 | 1.27 | 65 | 1011.0 |
| 20260505204327 | 57 | 90 | 0.0 | 1.0 | 0.00 | 1.27 | 1.27 | 65 | 1011.0 |
| 20260505203926 | 57 | 45 | 0.0 | 0.0 | 0.00 | 1.27 | 1.27 | 64 | 1011.1 |
| 20260505203525 | 57 | 0 | 0.0 | 0.0 | 0.00 | 1.27 | 1.27 | 64 | 1011.1 |
| 20260505203124 | 57 | 180 | 0.0 | 0.0 | 0.00 | 1.27 | 1.27 | 63 | 1011.2 |
| 20260505202723 | 57 | 90 | 0.0 | 0.0 | 0.00 | 1.27 | 1.27 | 63 | 1011.2 |
| 20260505202322 | 57 | 45 | 0.0 | 0.0 | 0.00 | 1.27 | 1.27 | 63 | 1011.1 |
| 20260505201921 | 57 | 315 | 0.0 | 0.0 | 0.00 | 1.27 | 1.27 | 63 | 1011.0 |
| 20260505201720 | 57 | 315 | 0.0 | 0.0 | 0.00 | 1.27 | 1.27 | 63 | 1011.0 |
| 20260505201320 | 57 | 135 | 0.0 | 0.0 | 0.00 | 1.27 | 1.27 | 61 | 1011.1 |
| 20260505200918 | 57 | 0 | 0.0 | 0.0 | 0.00 | 1.27 | 1.27 | 61 | 1011.1 |
| 20260505200517 | 57 | 135 | 0.0 | 0.0 | 0.00 | 1.27 | 1.27 | 61 | 1011.1 |
| 20260505200115 | 57 | 90 | 0.0 | 1.0 | 0.00 | 1.27 | 1.27 | 61 | 1011.1 |
| 20260505195714 | 57 | 225 | 0.0 | 0.0 | 0.00 | 1.27 | 1.27 | 61 | 1011.2 |
| 20260505194711 | 57 | 293 | 0.0 | 0.0 | 0.00 | 1.27 | 1.27 | 61 | 1011.1 |
| 20260505194310 | 57 | 45 | 0.0 | 0.0 | 0.00 | 1.27 | 1.27 | 60 | 1011.0 |
| 20260505193909 | 57 | 135 | 0.0 | 0.0 | 0.00 | 1.27 | 1.27 | 59 | 1011.1 |
| 20260505193508 | 57 | 135 | 0.0 | 0.0 | 0.00 | 1.27 | 1.27 | 59 | 1011.0 |
| 20260505193106 | 57 | 315 | 0.0 | 0.0 | 0.00 | 1.27 | 1.27 | 59 | 1010.9 |
| 20260505192705 | 57 | 225 | 0.0 | 0.0 | 0.00 | 1.27 | 1.27 | 58 | 1010.8 |
| 20260505192103 | 57 | 180 | 0.0 | 0.0 | 0.00 | 1.27 | 1.27 | 57 | 1010.9 |
| 20260505191702 | 58 | 45 | 0.0 | 0.0 | 0.00 | 1.27 | 1.27 | 57 | 1010.8 |
| 20260505191300 | 58 | 45 | 0.0 | 0.0 | 0.00 | 1.27 | 1.27 | 57 | 1010.9 |
| 20260505190859 | 58 | 90 | 0.0 | 0.0 | 0.00 | 1.27 | 1.27 | 56 | 1010.8 |
| 20260505190458 | 58 | 135 | 0.0 | 0.0 | 0.00 | 1.27 | 1.27 | 55 | 1010.9 |
| 20260505190257 | 58 | 135 | 0.0 | 0.0 | 0.00 | 1.27 | 1.27 | 55 | 1010.8 |
| 20260505185855 | 58 | 270 | 0.0 | 0.0 | 0.00 | 1.27 | 1.27 | 55 | 1010.6 |
| 20260505185454 | 58 | 135 | 0.0 | 0.0 | 0.00 | 1.27 | 1.27 | 54 | 1010.7 |
| 20260505185053 | 58 | 0 | 0.0 | 0.0 | 0.00 | 1.27 | 1.27 | 54 | 1010.7 |
| 20260505184652 | 58 | 293 | 0.0 | 0.0 | 0.00 | 1.27 | 1.27 | 54 | 1010.7 |
| 20260505184250 | 58 | 270 | 0.0 | 0.0 | 0.00 | 1.27 | 1.27 | 54 | 1010.7 |
| 20260505183248 | 58 | 135 | 0.0 | 0.0 | 0.00 | 1.27 | 1.27 | 53 | 1010.8 |
| 20260505182847 | 58 | 180 | 0.0 | 0.0 | 0.00 | 1.27 | 1.27 | 53 | 1010.8 |
| 20260505182445 | 58 | 180 | 0.0 | 0.0 | 0.00 | 1.27 | 1.27 | 53 | 1010.8 |
| 20260505182044 | 59 | 225 | 0.0 | 0.0 | 0.00 | 1.27 | 1.27 | 52 | 1010.8 |
| 20260505181643 | 59 | 45 | 0.0 | 0.0 | 0.00 | 1.27 | 1.27 | 52 | 1010.8 |
| 20260505181040 | 59 | 225 | 0.0 | 0.0 | 0.00 | 1.27 | 1.27 | 50 | 1010.7 |
| 20260505180639 | 59 | 45 | 0.0 | 0.0 | 0.00 | 1.27 | 1.27 | 50 | 1010.7 |
| 20260505180238 | 60 | 45 | 0.0 | 0.0 | 0.00 | 1.27 | 1.27 | 49 | 1010.7 |
| 20260505175836 | 60 | 45 | 0.0 | 1.0 | 0.00 | 1.27 | 1.27 | 49 | 1010.6 |
| 20260505175436 | 60 | 135 | 0.0 | 0.0 | 0.00 | 1.27 | 1.27 | 48 | 1010.7 |
| 20260505175035 | 60 | 90 | 0.0 | 0.0 | 0.00 | 1.27 | 1.27 | 47 | 1010.6 |
| 20260505174032 | 61 | 180 | 0.0 | 0.0 | 0.00 | 1.27 | 1.27 | 44 | 1010.5 |
| 20260505173631 | 62 | 135 | 0.0 | 1.0 | 0.00 | 1.27 | 1.27 | 42 | 1010.6 |
| 20260505173229 | 62 | 135 | 0.0 | 0.0 | 0.00 | 1.27 | 1.27 | 42 | 1010.5 |
| 20260505172828 | 63 | 180 | 0.0 | 0.0 | 0.00 | 1.27 | 1.27 | 38 | 1010.5 |
| 20260505172426 | 64 | 180 | 0.0 | 0.0 | 0.00 | 1.27 | 1.27 | 36 | 1010.5 |
| 20260505171423 | 68 | 135 | 0.0 | 0.0 | 0.00 | 1.27 | 1.27 | 34 | 1010.5 |
| 20260505171025 | 68 | 135 | 0.0 | 0.0 | 0.00 | 1.27 | 1.27 | 35 | 1010.5 |
| 20260505170623 | 67 | 270 | 0.0 | 0.0 | 0.00 | 1.27 | 1.27 | 36 | 1010.5 |
| 20260505170220 | 66 | 270 | 0.0 | 0.0 | 0.00 | 1.27 | 1.27 | 39 | 1010.4 |
| 20260505165819 | 64 | 270 | 0.0 | 0.0 | 0.00 | 1.27 | 1.27 | 41 | 1010.5 |
| 20260505165419 | 63 | 180 | 0.0 | 0.0 | 0.00 | 1.27 | 1.27 | 42 | 1010.5 |
| 20260505164817 | 63 | 180 | 0.0 | 0.0 | 0.00 | 1.27 | 1.27 | 41 | 1010.6 |
| 20260505164415 | 64 | 180 | 0.0 | 0.0 | 0.00 | 1.27 | 1.27 | 41 | 1010.5 |
| 20260505164015 | 65 | 0 | 0.0 | 0.0 | 0.00 | 1.27 | 1.27 | 39 | 1010.5 |
| 20260505163613 | 66 | 90 | 0.0 | 0.0 | 0.00 | 1.27 | 1.27 | 37 | 1010.5 |
| 20260505163212 | 67 | 225 | 0.0 | 1.0 | 0.00 | 1.27 | 1.27 | 36 | 1010.5 |
| 20260505162810 | 68 | 23 | 0.0 | 0.0 | 0.00 | 1.27 | 1.27 | 37 | 1010.5 |
| 20260505162409 | 67 | 90 | 0.0 | 0.0 | 0.00 | 1.27 | 1.27 | 37 | 1010.5 |
| 20260505162208 | 67 | 135 | 0.0 | 0.0 | 0.00 | 1.27 | 1.27 | 36 | 1010.6 |
| 20260505161806 | 68 | 113 | 0.0 | 0.0 | 0.00 | 1.27 | 1.27 | 37 | 1010.5 |
| 20260505161406 | 68 | 90 | 0.0 | 0.0 | 0.00 | 1.27 | 1.27 | 35 | 1010.5 |
| 20260505161005 | 68 | 90 | 0.0 | 0.0 | 0.00 | 1.27 | 1.27 | 36 | 1010.5 |
| 20260505160603 | 67 | 270 | 0.0 | 0.0 | 0.00 | 1.27 | 1.27 | 37 | 1010.6 |
| 20260505160202 | 67 | 315 | 0.0 | 0.0 | 0.00 | 1.27 | 1.27 | 36 | 1010.5 |
| 20260505152952 | 64 | 135 | 0.0 | 0.0 | 0.00 | 1.27 | 1.27 | 42 | 1010.8 |
| 20260505152551 | 64 | 90 | 0.0 | 0.0 | 0.00 | 1.27 | 1.27 | 42 | 1010.9 |
| 20260505152150 | 65 | 180 | 0.0 | 0.0 | 0.00 | 1.27 | 1.27 | 42 | 1010.9 |
| 20260505151748 | 65 | 180 | 0.0 | 0.0 | 0.00 | 1.27 | 1.27 | 41 | 1010.9 |
| 20260505151347 | 65 | 315 | 0.0 | 0.0 | 0.00 | 1.27 | 1.27 | 42 | 1010.8 |
| 20260505150945 | 65 | 180 | 0.0 | 0.0 | 0.00 | 1.27 | 1.27 | 40 | 1010.8 |
| 20260505140325 | 71 | 225 | 0.0 | 1.0 | 0.00 | 1.27 | 1.27 | 33 | 1010.6 |
| 20260505130308 | 67 | 135 | 0.0 | 0.0 | 0.00 | 1.27 | 1.27 | 43 | 1010.9 |
| 20260505124502 | 67 | 180 | 0.0 | 0.0 | 0.00 | 1.27 | 1.27 | 44 | 1010.9 |
| 20260505124101 | 68 | 135 | 0.0 | 0.0 | 0.00 | 1.27 | 1.27 | 44 | 1010.9 |
| 20260505123700 | 68 | 135 | 0.0 | 0.0 | 0.00 | 1.27 | 1.27 | 45 | 1010.9 |
| 20260505123258 | 67 | 225 | 0.0 | 0.0 | 0.00 | 1.27 | 1.27 | 46 | 1010.9 |
| 20260505122857 | 65 | 135 | 0.0 | 0.0 | 0.00 | 1.27 | 1.27 | 47 | 1011.0 |
| 20260505122456 | 64 | 180 | 0.0 | 0.0 | 0.00 | 1.27 | 1.27 | 45 | 1011.0 |
| 20260505122055 | 64 | 180 | 0.0 | 0.0 | 0.00 | 1.27 | 1.27 | 45 | 1011.0 |
| 20260505121453 | 65 | 135 | 0.0 | 0.0 | 0.00 | 1.27 | 1.27 | 46 | 1011.0 |
| 20260505120652 | 67 | 180 | 0.0 | 0.0 | 0.00 | 1.27 | 1.27 | 45 | 1010.9 |
| 20260505120250 | 67 | 180 | 0.0 | 0.0 | 0.00 | 1.27 | 1.27 | 44 | 1010.8 |
| 20260505115849 | 67 | 225 | 0.0 | 0.0 | 0.00 | 1.27 | 1.27 | 44 | 1010.9 |
| 20260505115448 | 67 | 270 | 0.0 | 0.0 | 0.00 | 1.27 | 1.27 | 45 | 1010.9 |
| 20260505114445 | 66 | 158 | 0.0 | 0.0 | 0.00 | 1.27 | 1.27 | 47 | 1011.0 |
| 20260505114044 | 66 | 270 | 0.0 | 0.0 | 0.00 | 1.27 | 1.27 | 47 | 1011.0 |
| 20260505113642 | 64 | 180 | 0.0 | 0.0 | 0.00 | 1.27 | 1.27 | 50 | 1010.9 |
| 20260505113241 | 63 | 90 | 0.0 | 0.0 | 0.00 | 1.27 | 1.27 | 51 | 1011.0 |
| 20260505112840 | 62 | 135 | 0.0 | 0.0 | 0.00 | 1.27 | 1.27 | 53 | 1011.0 |
| 20260505112238 | 62 | 158 | 0.0 | 0.0 | 0.00 | 1.27 | 1.27 | 53 | 1011.1 |
| 20260505111837 | 63 | 180 | 0.0 | 0.0 | 0.00 | 1.27 | 1.27 | 52 | 1011.1 |
| 20260505111436 | 64 | 135 | 0.0 | 0.0 | 0.00 | 1.27 | 1.27 | 53 | 1011.1 |
| 20260505111035 | 63 | 225 | 0.0 | 0.0 | 0.00 | 1.27 | 1.27 | 55 | 1010.9 |
| 20260505110634 | 62 | 135 | 0.0 | 0.0 | 0.00 | 1.27 | 1.27 | 55 | 1011.0 |
| 20260505110233 | 62 | 180 | 0.0 | 0.0 | 0.00 | 1.27 | 1.27 | 57 | 1011.0 |
| 20260505101419 | 57 | 135 | 0.0 | 0.0 | 0.00 | 1.27 | 1.27 | 68 | 1010.9 |
| 20260505101018 | 58 | 135 | 0.0 | 0.0 | 0.00 | 1.27 | 1.27 | 67 | 1010.9 |
| 20260505100617 | 58 | 90 | 0.0 | 0.0 | 0.00 | 1.27 | 1.27 | 67 | 1010.9 |
| 20260505100216 | 58 | 135 | 0.0 | 0.0 | 0.00 | 1.27 | 1.27 | 67 | 1010.9 |
| 20260505095815 | 58 | 135 | 0.0 | 0.0 | 0.00 | 1.27 | 1.27 | 68 | 1010.9 |
| 20260505095213 | 57 | 135 | 0.0 | 0.0 | 0.00 | 1.27 | 1.27 | 68 | 1010.8 |
| 20260505094811 | 57 | 90 | 0.0 | 0.0 | 0.00 | 1.27 | 1.27 | 68 | 1010.8 |
| 20260505094410 | 57 | 135 | 0.0 | 0.0 | 0.00 | 1.27 | 1.27 | 68 | 1010.8 |
| 20260505094009 | 58 | 135 | 0.0 | 0.0 | 0.00 | 1.27 | 1.27 | 68 | 1010.7 |
| 20260505093609 | 58 | 135 | 0.0 | 0.0 | 0.00 | 1.27 | 1.27 | 68 | 1010.7 |
| 20260505093208 | 58 | 135 | 0.0 | 0.0 | 0.00 | 1.27 | 1.27 | 69 | 1010.7 |
| 20260505091805 | 58 | 135 | 0.0 | 0.0 | 0.00 | 1.27 | 1.27 | 71 | 1010.6 |
| 20260505091403 | 58 | 135 | 0.0 | 0.0 | 0.00 | 1.27 | 1.27 | 71 | 1010.6 |